Theta_e
337 337 340 332 311 310 306 306 310 309 311 314 319 317 318 320 318 313 334 337 340 338 339 343 346 346 347 345 346 345 344 341 341 341 340 340 339 339 338 338 339 343 340 338 337 336 335 333 332
333 337 333 320 308 303 304 309 308 310 314 317 318 316 316 317 327 329 331 338 339 339 338 340 344 347 346 346 345 345 344 341 340 339 338 337 336 337 337 336 336 336 339 340 336 335 334 333 332
330 332 317 314 309 304 305 309 310 314 316 316 315 317 316 320 328 331 337 338 339 339 339 340 343 346 345 345 346 345 345 342 341 339 337 335 335 334 335 336 335 334 335 340 337 336 333 332 332
327 321 317 309 307 310 308 311 313 312 313 315 314 313 321 327 329 336 338 339 337 339 340 340 344 344 344 345 344 344 344 343 341 338 336 334 334 334 334 335 333 334 333 335 339 336 334 333 332
324 318 308 306 308 310 310 314 313 310 310 310 310 309 317 330 336 337 337 338 337 338 338 339 342 343 344 343 344 345 344 343 340 339 337 334 334 333 334 334 333 333 331 331 331 334 335 334 333
314 316 304 302 307 310 311 313 312 311 311 311 307 314 318 331 333 335 336 336 338 338 337 338 337 340 342 342 344 345 346 344 342 340 339 337 335 333 333 333 333 331 330 329 330 328 328 330 330
313 311 305 305 307 307 310 314 311 311 312 311 311 309 320 327 334 336 335 337 337 338 338 337 338 338 335 338 339 342 343 342 342 341 341 339 338 337 336 335 334 332 331 330 330 330 328 327 329
314 313 307 306 306 306 311 312 314 313 308 312 312 306 312 324 334 335 334 334 337 337 338 338 337 337 336 335 333 335 338 340 340 338 336 333 334 335 334 332 334 334 334 333 333 333 332 331 330
316 307 303 305 308 308 312 310 314 316 311 312 315 316 322 331 334 331 330 331 333 336 336 337 337 337 337 334 332 329 332 334 334 333 330 329 333 333 332 330 332 336 336 337 337 336 335 332 331
309 305 306 311 310 310 311 312 313 311 310 313 315 319 327 329 330 328 327 327 329 332 334 335 336 336 336 337 331 331 333 333 333 332 331 329 331 332 333 327 328 332 332 334 336 336 334 329 327
310 306 311 311 312 314 311 311 314 310 307 313 313 318 324 326 327 328 327 328 328 331 332 334 334 335 334 333 334 332 332 330 330 329 329 329 328 329 328 328 328 328 323 328 331 330 330 328 328
306 309 309 311 312 313 311 313 311 311 310 316 317 323 324 324 325 326 326 327 328 329 332 333 334 334 334 334 333 333 332 332 331 331 331 328 328 328 328 327 328 329 328 327 328 327 328 328 328
306 308 310 310 311 311 314 311 310 310 314 318 319 323 322 323 325 326 327 328 329 327 330 332 333 332 333 333 333 332 332 331 331 331 332 330 328 328 329 328 328 328 328 327 326 327 327 327 327
309 310 309 310 310 311 311 311 310 312 315 316 317 316 320 322 323 324 325 325 327 329 329 331 333 334 334 333 333 332 332 332 332 332 332 332 330 329 329 329 329 328 328 327 327 326 326 325 326
309 305 307 308 309 307 310 305 306 312 315 314 315 315 317 319 321 322 324 324 327 329 330 330 332 334 333 332 333 333 333 333 332 332 333 332 332 330 329 328 328 328 329 328 327 327 326 325 326
305 305 299 305 307 306 306 301 308 311 312 312 314 315 315 317 319 321 323 325 325 327 328 330 332 332 333 332 333 333 334 333 332 333 333 333 333 332 330 329 329 330 330 329 328 328 327 326 325
302 296 299 300 306 305 304 302 307 309 309 310 312 313 316 316 318 320 322 322 323 324 326 327 329 330 331 332 332 332 333 333 333 333 332 333 333 333 331 330 330 331 330 329 328 325 325 325 325
294 296 299 296 299 302 302 299 304 305 305 305 310 310 312 312 314 320 322 323 324 324 324 324 327 328 329 330 330 330 330 331 332 332 332 333 333 333 332 331 330 330 328 327 326 324 324 324 324
300 299 297 299 301 299 300 301 302 305 304 303 303 304 306 308 311 311 313 315 316 316 316 316 317 319 323 324 325 325 325 327 329 331 332 330 328 326 324 324 324 322 321 321 322 322 321 319 324
300 297 296 300 301 298 299 298 301 302 302 302 303 303 304 305 306 308 308 311 311 311 311 313 313 313 314 316 318 320 319 320 319 322 322 321 320 320 320 320 320 320 319 318 318 318 319 321 323
298 297 296 296 298 298 296 294 296 301 303 303 304 304 304 303 303 304 303 303 305 307 308 310 311 312 313 314 315 315 314 313 313 314 315 317 319 320 320 321 320 319 319 317 318 321 320 318 321
293 300 299 297 294 289 297 286 295 300 297 299 300 301 302 300 301 302 302 302 303 305 307 308 310 311 310 311 310 310 310 310 313 314 315 316 317 316 317 317 317 316 317 317 317 322 323 323 320
296 301 299 298 295 291 290 286 291 295 293 296 299 298 298 300 301 300 301 303 302 304 304 306 308 307 306 306 306 306 307 309 311 311 313 313 314 315 314 314 313 312 313 314 315 319 319 321 321
300 297 296 296 294 285 290 288 287 291 295 295 295 297 298 299 299 301 302 303 303 303 303 304 304 305 304 304 304 304 304 306 307 309 310 311 312 312 313 312 309 309 308 309 314 316 316 316 317
297 291 283 279 278 279 288 288 290 292 293 294 295 296 298 298 299 300 300 301 301 301 301 300 302 302 302 301 301 302 302 302 303 304 306 307 309 310 310 309 307 306 307 309 310 311 310 311 309
293 290 284 278 278 279 285 279 286 293 295 296 297 297 297 299 300 299 300 300 301 301 301 301 300 300 300 300 299 299 300 299 299 300 301 302 304 306 307 305 304 304 305 304 303 303 305 306 305
292 288 292 283 278 278 282 286 291 294 294 295 295 296 295 298 299 300 300 300 300 300 300 300 300 299 299 299 298 298 297 297 297 297 298 298 300 302 301 300 300 300 301 301 300 299 299 301 301
293 295 284 284 274 272 278 281 284 289 291 294 293 293 296 298 299 299 299 300 300 300 300 300 300 299 299 298 298 297 296 296 296 295 295 296 296 298 298 298 298 298 298 298 297 296 297 297 297
290 288 290 289 285 279 276 279 287 289 291 292 293 296 296 297 298 298 299 299 300 300 300 299 299 299 298 298 298 297 296 296 296 294 294 294 294 295 295 295 295 295 295 295 294 294 294 294 294
293 291 290 281 278 281 281 282 291 291 292 294 294 295 296 298 299 299 299 299 299 298 298 298 297 297 297 296 296 295 295 295 294 293 293 293 293 293 293 293 293 293 293 293 292 291 292 291 291
Wind_Speed
10 7 8 3 3 5 7 4 8 6 5 3 9 9 12 9 7 8 8 12 19 15 13 11 13 11 12 12 11 10 9 10 10 10 9 9 9 9 10 10 10 11 7 12 10 9 10 10 10
9 9 4 4 4 3 5 9 7 7 10 9 7 1 3 6 7 11 6 14 17 16 11 11 11 11 11 11 11 10 10 10 9 9 8 7 7 7 8 8 8 7 7 8 9 8 8 8 9
5 10 3 5 5 0 3 6 9 10 9 6 5 2 5 5 9 8 10 14 15 14 12 11 10 11 10 10 10 9 10 10 9 8 7 6 6 7 6 7 7 7 8 8 6 9 7 6 6
4 2 5 5 10 7 7 9 15 8 4 3 6 9 6 5 8 10 10 13 16 13 13 11 11 11 11 10 10 9 10 11 9 8 8 7 7 6 6 5 6 7 4 5 6 4 8 6 4
3 5 5 7 6 3 4 12 11 9 7 6 4 6 6 8 12 13 11 12 16 12 11 10 11 11 11 11 10 11 11 12 10 9 9 8 7 6 5 6 6 5 3 3 3 5 5 5 2
4 4 4 8 7 5 5 9 9 7 8 8 3 9 6 8 10 10 9 15 14 13 11 10 10 10 9 8 8 9 12 10 9 9 8 8 8 6 5 5 4 3 2 1 1 1 1 1 1
4 6 8 10 6 5 4 9 7 8 8 6 8 9 8 8 10 10 9 14 13 10 9 9 8 7 6 6 6 7 8 8 8 7 7 6 7 7 6 5 5 5 4 3 4 3 2 3 4
2 4 11 14 7 5 7 6 5 7 7 7 4 3 7 8 11 9 8 9 13 10 9 9 8 7 6 6 7 6 5 8 7 6 4 3 5 7 7 7 6 7 7 6 6 6 6 6 6
3 3 6 16 5 7 9 6 1 4 8 4 3 7 16 16 10 8 6 7 8 8 7 7 9 9 8 8 7 6 5 5 4 4 6 4 4 7 8 8 10 11 9 7 8 8 8 8 8
4 4 9 6 7 11 12 9 7 5 8 8 8 5 15 14 9 9 8 7 7 9 7 7 7 7 6 5 8 6 7 5 5 5 6 5 5 5 7 5 10 9 9 9 9 9 10 7 4
5 4 2 6 7 3 11 9 8 7 6 10 12 11 12 11 9 9 8 7 7 8 6 6 6 6 6 4 5 4 3 4 4 7 6 6 5 4 2 2 3 4 7 4 6 7 5 7 6
5 2 4 4 6 3 10 7 8 5 3 9 17 14 12 11 9 9 8 7 8 8 7 7 7 6 6 4 4 4 4 4 4 5 6 4 2 3 3 3 5 5 4 5 6 4 7 9 9
8 5 2 0 3 6 7 6 6 8 7 11 15 13 12 10 9 8 8 8 7 6 8 8 7 7 6 5 4 4 4 4 5 5 6 5 4 4 4 4 3 3 4 4 5 5 5 5 6
3 5 6 5 3 5 6 7 0 8 8 9 12 10 10 10 10 8 9 8 8 7 7 7 8 7 7 6 6 4 4 5 5 5 5 7 5 4 5 5 5 5 5 5 5 5 5 5 5
7 6 6 5 6 1 2 2 4 9 9 9 9 9 10 9 10 9 8 7 8 7 7 8 8 8 7 7 6 5 4 4 4 5 6 7 7 6 5 4 4 4 5 6 4 4 3 4 4
6 2 7 5 5 2 4 7 7 5 8 9 9 9 9 9 9 7 9 8 8 8 9 8 6 6 7 6 5 5 5 4 5 4 5 7 7 7 5 4 4 4 4 4 4 5 5 5 5
6 5 9 6 6 3 5 3 9 5 4 7 8 8 8 7 7 6 7 6 7 7 7 8 8 8 7 6 4 4 6 5 5 5 5 6 6 6 5 4 4 5 4 4 4 4 4 5 6
3 3 7 8 4 2 4 4 4 3 2 4 5 5 7 5 2 6 7 7 7 5 3 3 5 8 8 5 4 3 3 3 3 4 4 6 5 7 6 5 5 4 4 4 3 4 4 5 7
3 5 5 9 6 4 2 4 8 8 6 1 3 1 4 6 6 3 3 6 5 3 0 2 3 4 2 2 2 2 3 3 3 3 3 2 2 2 2 2 2 2 2 3 4 3 4 4 5
6 5 2 2 4 4 4 5 6 4 4 3 5 4 4 2 2 2 1 5 5 4 4 3 2 2 3 2 2 3 1 1 1 2 2 1 3 3 3 2 3 2 2 5 4 4 5 5 5
9 9 6 3 2 4 3 8 8 7 8 6 7 7 5 4 3 6 8 8 8 9 8 7 7 4 3 4 2 3 3 3 3 2 2 1 1 3 2 2 2 3 3 4 5 6 7 7 5
8 2 2 9 2 1 5 5 7 11 7 6 6 5 6 1 7 7 7 8 8 7 8 8 7 6 6 7 5 3 1 2 1 1 1 1 1 2 3 3 3 3 2 4 4 3 5 4 7
2 9 5 1 2 5 4 1 7 3 6 7 9 5 7 7 7 7 7 6 5 6 6 5 6 7 7 6 3 2 2 2 2 1 2 2 3 4 3 1 3 4 3 4 5 5 4 4 5
7 10 8 5 3 2 6 3 5 3 7 4 6 7 8 7 6 7 6 6 6 6 6 5 6 4 4 3 3 3 3 4 4 4 3 3 1 1 2 3 1 3 3 4 4 4 5 4 4
3 7 2 2 1 5 2 6 10 1 5 7 9 8 8 6 7 7 7 6 6 6 5 4 4 3 3 2 3 4 5 5 5 5 3 5 3 3 3 2 2 2 4 5 4 4 5 5 5
9 6 5 6 5 3 5 5 5 1 8 10 8 7 7 8 6 7 6 6 6 6 4 4 4 3 2 1 2 2 3 2 3 4 4 4 3 3 4 4 3 5 5 4 4 3 4 5 4
6 5 3 5 2 3 5 4 4 5 6 8 5 7 8 8 8 7 7 5 5 4 3 3 3 2 2 2 2 3 3 3 3 4 3 3 4 4 4 4 5 5 6 6 5 4 5 5 5
3 6 4 3 4 3 3 3 4 5 5 8 7 6 7 8 8 6 5 4 3 4 3 4 3 3 2 3 3 3 4 4 5 5 5 6 6 5 6 5 6 6 5 6 6 5 5 6 5
3 4 1 4 2 3 1 4 4 4 5 9 9 8 8 8 8 6 4 3 2 2 3 3 4 4 5 4 4 5 5 5 5 5 5 5 4 6 5 6 6 6 6 6 6 6 6 7 7
5 6 4 4 3 2 3 5 3 5 7 10 9 7 6 6 6 4 1 2 1 4 5 6 6 6 6 6 6 7 6 6 5 6 6 6 6 5 6 6 6 6 6 6 7 7 6 7 7
Wind_Direction
301 198 225 215 250 219 218 104 107 83 79 34 60 29 78 49 25 106 143 117 119 126 130 142 143 139 131 126 120 116 112 105 100 95 89 81 77 71 69 66 64 66 88 101 85 79 75 71 68
286 204 239 270 247 262 308 115 134 116 92 82 72 33 34 80 79 111 105 124 119 119 146 137 133 143 138 139 138 135 127 118 110 101 94 90 90 85 82 76 68 65 63 75 106 92 84 79 75
252 241 291 221 227 209 221 137 113 91 116 141 100 22 28 83 118 134 126 131 121 129 128 126 135 129 135 150 146 148 141 133 124 116 113 107 106 104 107 101 95 76 56 42 104 121 107 93 80
264 216 259 252 265 148 108 115 103 118 75 29 94 92 70 310 154 114 150 138 109 108 117 134 140 143 146 145 159 164 161 148 140 137 133 129 118 116 131 126 99 98 82 59 82 135 125 116 96
272 261 248 235 268 68 59 108 130 153 147 153 227 114 97 65 96 126 140 129 118 121 127 142 150 156 157 159 162 178 169 158 155 151 151 147 143 139 144 121 132 123 114 87 52 39 99 110 134
261 243 253 238 216 86 89 118 148 143 124 96 129 98 127 126 130 142 147 122 123 134 142 146 160 163 166 164 163 167 162 162 164 165 169 168 163 164 169 170 169 173 179 207 159 22 12 316 285
259 264 260 253 152 129 122 140 157 123 128 159 120 124 123 165 138 145 157 129 134 145 145 154 159 165 164 167 160 156 157 166 173 180 189 194 183 178 184 199 209 213 215 227 228 231 247 258 259
270 249 263 266 147 156 132 157 135 138 54 86 359 157 159 158 142 147 149 135 142 154 161 158 159 160 168 169 175 176 198 197 185 198 196 173 240 203 201 208 224 226 221 226 229 226 232 246 254
276 271 245 255 170 124 139 135 353 84 121 109 72 39 125 133 144 146 143 143 140 150 168 164 161 173 175 163 172 177 196 195 208 222 222 215 207 201 209 202 222 215 223 232 236 232 233 242 253
220 213 247 272 261 142 155 146 126 143 136 115 92 78 115 136 155 153 157 164 152 153 178 165 157 168 173 162 138 176 185 190 202 218 215 202 232 229 201 194 204 202 220 238 247 247 241 244 246
212 252 258 354 358 63 158 160 150 155 176 161 146 143 140 152 161 157 166 166 164 161 165 169 165 164 168 168 155 174 185 187 198 203 210 200 213 229 199 170 187 206 222 228 232 235 227 228 229
248 78 325 338 350 358 168 142 156 196 97 132 138 142 150 159 167 167 169 161 167 157 167 175 169 169 181 172 171 183 173 180 190 201 201 209 219 234 236 205 215 191 195 205 228 207 220 215 229
242 117 119 354 321 310 149 133 160 119 85 87 127 143 157 162 166 168 176 169 164 194 174 171 185 179 182 187 186 205 189 177 195 205 195 193 207 212 214 225 228 227 217 214 228 232 240 238 237
306 192 137 171 106 359 167 129 204 130 128 113 131 158 165 166 172 170 173 173 163 175 176 181 178 193 187 180 202 201 201 200 190 202 198 196 203 215 213 219 220 222 218 224 220 220 227 231 225
271 154 144 156 147 161 330 61 232 145 136 138 159 166 166 176 169 175 174 168 165 171 194 190 188 185 203 197 196 197 211 202 208 202 214 201 193 215 232 231 236 226 224 226 233 260 262 254 252
234 197 151 118 165 262 218 197 201 102 134 157 176 169 165 173 173 174 170 170 178 180 188 196 184 186 200 214 205 200 202 205 208 212 211 210 208 205 214 228 241 244 251 235 218 214 235 237 235
275 182 145 119 14 144 208 86 101 77 145 207 179 164 159 162 169 178 176 181 185 187 188 188 183 190 212 225 226 224 210 203 205 205 211 217 207 206 213 232 247 250 246 244 236 251 234 259 252
213 219 123 115 28 342 183 122 92 99 120 260 176 171 106 89 171 182 183 181 185 200 216 225 196 194 193 202 219 233 253 240 221 225 217 213 209 208 206 221 236 249 262 275 274 248 249 249 269
278 354 354 62 35 39 236 233 163 151 125 175 300 43 151 176 213 217 109 110 121 113 133 281 283 276 203 174 183 245 238 244 242 226 234 356 11 349 281 241 251 278 279 278 316 307 271 268 270
159 169 294 331 23 356 310 256 261 277 147 207 264 256 235 241 294 237 39 44 49 50 26 331 226 285 281 218 184 173 148 269 347 341 86 129 265 263 241 247 265 295 313 298 297 293 289 286 278
168 198 199 294 141 207 331 274 246 240 211 202 220 227 264 290 349 17 25 28 31 41 28 9 357 356 358 338 31 39 36 14 360 304 241 254 42 10 339 288 285 263 223 247 247 248 243 262 272
180 197 121 173 200 188 133 292 270 230 160 180 235 239 238 114 58 55 42 38 33 24 24 359 352 16 41 33 32 9 223 236 230 106 92 49 159 254 302 311 298 282 282 283 287 300 279 268 270
118 100 172 243 23 2 204 173 254 260 162 191 214 113 87 74 64 54 48 34 26 42 20 0 32 35 39 32 36 21 328 292 297 303 260 252 252 216 220 269 315 303 298 289 304 303 295 281 282
139 108 96 76 34 266 232 211 253 228 206 129 97 95 86 73 72 70 77 68 52 46 41 33 29 67 50 14 340 326 318 318 329 329 330 299 271 204 183 191 231 290 287 276 269 272 273 283 287
160 142 95 70 141 220 144 213 245 277 65 113 141 123 118 104 89 91 79 73 60 52 50 58 44 53 66 15 359 7 353 347 330 327 340 351 346 343 308 200 225 265 258 263 280 292 293 282 275
186 184 158 171 181 207 350 241 257 38 56 97 98 102 110 119 118 100 99 97 91 80 68 53 56 34 44 355 334 348 333 330 336 336 338 330 326 320 342 347 330 304 301 298 297 291 280 268 268
185 213 15 98 44 68 194 267 319 230 128 113 160 150 161 142 130 110 81 83 88 86 75 61 37 11 357 320 333 328 314 309 286 293 296 292 292 287 291 296 295 290 290 289 282 273 275 279 269
135 134 81 345 131 205 242 254 222 202 207 165 144 170 150 145 126 127 104 87 65 70 56 39 27 2 343 349 334 312 307 310 305 307 303 300 297 300 306 301 288 285 282 276 273 269 274 272 263
131 157 155 133 112 165 160 233 314 61 269 164 170 171 152 147 150 148 136 82 86 107 90 53 39 27 7 0 348 342 325 315 314 301 295 285 288 296 298 285 286 285 280 279 277 270 270 272 272
219 160 143 125 243 239 137 268 24 36 29 102 88 65 66 89 107 134 16 227 194 82 49 42 36 42 24 6 4 350 338 335 330 324 319 314 307 308 294 294 288 283 279 275 270 272 267 266 270